Change the Weather History Date:

Monday, December 3, 2012

  Actual Average Record
Temperature  
Mean Temperature 43 °F -  
Max Temperature 53 °F 32 °F 62 °F (1998)
Min Temperature 33 °F 18 °F -11 °F (1976)
Degree Days  
Heating Degree Days 22    
Moisture  
Dew Point 32 °F    
Average Humidity 61    
Maximum Humidity 87    
Minimum Humidity 35    
Precipitation  
Precipitation 0.00 in - - ()
Sea Level Pressure  
Sea Level Pressure 29.76 in    
Wind  
Wind Speed 19 mph (WSW)    
Max Wind Speed 28 mph    
Max Gust Speed 36 mph    
Visibility 7 miles    
Events      
Averages and records for this station are not official NWS values.
T = Trace of Precipitation, MM = Missing Value Source: NWS Daily Summary

Daily Weather History Graph

Daily Weather History Graph

Search for Another Location

Airport or City:

Trip Planner

Search our weather history database for the weather conditions in past years. The results will help you decide how hot, cold, wet, or windy it might be!

Date:

Astronomy

Dec. 03, 2012 Rise Set
Actual Time 7:38 AM CST 4:45 PM CST
Civil Twilight 7:06 AM CST 5:18 PM CST
Nautical Twilight 6:30 AM CST 5:54 PM CST
Astronomical Twilight 5:55 AM CST 6:28 PM CST
Moon 9:39 PM CST (12/3) 10:57 AM CST (12/3)
Length of Visible Light 10h 12m
Length of Day
9h 07m
Waning Gibbous, 78% of the Moon is Illuminated
Dec 3
Waning Gibbous
Dec 6
Last Quarter
Dec 13
New
Dec 19
First Quarter
Dec 28
Full

Hourly Weather History & Observations

Time (CST) Temp. Windchill Dew Point Humidity Pressure Visibility Wind Dir Wind Speed Gust Speed Precip Events Conditions
12:15 AM 44.6 °F 35.7 °F 35.6 °F 71% 29.71 in 9.0 mi South 24.2 mph 28.8 mph N/A   Clear
12:35 AM 44.6 °F 36.1 °F 35.6 °F 71% 29.71 in 10.0 mi South 21.9 mph 27.6 mph N/A   Clear
12:55 AM 44.6 °F 36.9 °F 37.4 °F 76% 29.70 in 10.0 mi South 18.4 mph 25.3 mph N/A   Clear
1:15 AM 44.6 °F 36.9 °F 37.4 °F 76% 29.69 in 7.0 mi South 18.4 mph 23.0 mph N/A   Clear
1:35 AM 42.8 °F 35.4 °F 35.6 °F 76% 29.68 in 6.0 mi South 15.0 mph - N/A   Clear
1:55 AM 42.8 °F 35.1 °F 35.6 °F 76% 29.68 in 5.0 mi SSE 16.1 mph - N/A   Clear
2:15 AM 42.8 °F 34.5 °F 35.6 °F 76% 29.66 in 5.0 mi SSE 18.4 mph 23.0 mph N/A   Clear
2:35 AM 42.8 °F 34.5 °F 37.4 °F 81% 29.66 in 4.0 mi South 18.4 mph - N/A   Scattered Clouds
2:55 AM 44.6 °F 37.4 °F 37.4 °F 76% 29.65 in 2.0 mi SSE 16.1 mph 23.0 mph N/A   Overcast
3:15 AM 44.6 °F 37.2 °F 39.2 °F 81% 29.64 in 1.0 mi South 17.3 mph 21.9 mph N/A   Overcast
3:35 AM 46.4 °F 39.2 °F 41.0 °F 81% 29.63 in 1.5 mi South 18.4 mph 24.2 mph N/A   Overcast
3:55 AM 46.4 °F 39.2 °F 41.0 °F 81% 29.62 in 1.5 mi South 18.4 mph - N/A   Overcast
4:15 AM 46.4 °F 39.2 °F 41.0 °F 81% 29.61 in 2.0 mi South 18.4 mph - N/A   Overcast
4:35 AM 46.4 °F 38.5 °F 41.0 °F 81% 29.61 in 2.5 mi South 21.9 mph 28.8 mph N/A   Overcast
4:55 AM 46.4 °F 39.2 °F 41.0 °F 81% 29.60 in 1.8 mi South 18.4 mph 27.6 mph N/A   Overcast
5:15 AM 46.4 °F 39.0 °F 41.0 °F 81% 29.58 in 1.2 mi South 19.6 mph 27.6 mph N/A   Overcast
5:35 AM 46.4 °F 38.7 °F 41.0 °F 81% 29.57 in 2.0 mi South 20.7 mph 26.5 mph N/A   Overcast
6:15 AM 46.4 °F 39.5 °F 42.8 °F 87% 29.58 in 3.0 mi South 17.3 mph - N/A   Overcast
6:35 AM 46.4 °F 39.0 °F 42.8 °F 87% 29.58 in 2.0 mi South 19.6 mph 24.2 mph N/A   Overcast
6:55 AM 48.2 °F - 42.8 °F 82% 29.56 in 1.0 mi South 19.6 mph 24.2 mph N/A   Overcast
7:15 AM 48.2 °F - 44.6 °F 87% 29.56 in 1.2 mi South 20.7 mph 24.2 mph N/A   Overcast
7:35 AM 48.2 °F - 44.6 °F 87% 29.57 in 2.0 mi South 19.6 mph 26.5 mph N/A   Overcast
7:55 AM 50.0 °F - 44.6 °F 82% 29.56 in 2.0 mi SSW 23.0 mph 33.4 mph N/A   Overcast
8:15 AM 50.0 °F - 44.6 °F 82% 29.57 in 2.5 mi SSW 20.7 mph 29.9 mph N/A   Overcast
8:35 AM 50.0 °F - 44.6 °F 82% 29.59 in 3.0 mi SW 17.3 mph - N/A   Overcast
8:55 AM 50.0 °F - 42.8 °F 76% 29.60 in 4.0 mi SW 23.0 mph 31.1 mph N/A   Overcast
9:15 AM 48.2 °F - 42.8 °F 82% 29.60 in 4.0 mi SW 20.7 mph 24.2 mph N/A   Overcast
9:35 AM 48.2 °F - 41.0 °F 76% 29.61 in 5.0 mi WSW 17.3 mph - N/A   Overcast
10:15 AM 46.4 °F 39.8 °F 39.2 °F 76% 29.64 in 5.0 mi West 16.1 mph - N/A   Partly Cloudy
10:35 AM 48.2 °F - 39.2 °F 71% 29.64 in 8.0 mi West 16.1 mph 19.6 mph N/A   Clear
10:55 AM 48.2 °F - 37.4 °F 66% 29.65 in 10.0 mi WNW 20.7 mph 25.3 mph N/A   Clear
11:15 AM 50.0 °F - 37.4 °F 62% 29.66 in 10.0 mi NW 20.7 mph 25.3 mph N/A   Clear
11:35 AM 51.8 °F - 37.4 °F 58% 29.66 in 10.0 mi NW 21.9 mph 31.1 mph N/A   Clear
11:55 AM 53.6 °F - 37.4 °F 54% 29.66 in 10.0 mi NW 25.3 mph 33.4 mph N/A   Clear
12:15 PM - - - N/A% 29.68 in 10.0 mi NW 27.6 mph 35.7 mph N/A   Clear
12:35 PM 53.6 °F - 35.6 °F 51% 29.69 in 10.0 mi NW 26.5 mph 33.4 mph N/A   Clear
1:15 PM 53.6 °F - 35.6 °F 51% 29.72 in 10.0 mi NW 24.2 mph - N/A   Overcast
1:35 PM 53.6 °F - 35.6 °F 51% 29.73 in 10.0 mi NW 25.3 mph 29.9 mph N/A   Overcast
1:55 PM 53.6 °F - 33.8 °F 47% 29.75 in 10.0 mi NW 23.0 mph 32.2 mph N/A   Overcast
2:15 PM 53.6 °F - 32.0 °F 44% 29.75 in 10.0 mi NW 24.2 mph 32.2 mph N/A   Mostly Cloudy
2:35 PM 53.6 °F - 28.4 °F 38% 29.77 in 10.0 mi NW 24.2 mph 31.1 mph N/A   Partly Cloudy
2:55 PM 53.6 °F - 28.4 °F 38% 29.79 in 10.0 mi WNW 18.4 mph 27.6 mph N/A   Clear
3:15 PM 53.6 °F - 28.4 °F 38% 29.80 in 10.0 mi WNW 21.9 mph 29.9 mph N/A   Clear
3:35 PM 53.6 °F - 26.6 °F 35% 29.81 in 10.0 mi NW 21.9 mph 31.1 mph N/A   Clear
3:55 PM 53.6 °F - 26.6 °F 35% 29.83 in 10.0 mi WNW 18.4 mph - N/A   Clear
4:15 PM 51.8 °F - 26.6 °F 38% 29.84 in 10.0 mi WNW 12.7 mph - N/A   Clear
4:35 PM 48.2 °F - 26.6 °F 43% 29.85 in 10.0 mi West 10.4 mph - N/A   Clear
4:55 PM 46.4 °F 41.9 °F 24.8 °F 43% 29.86 in 10.0 mi West 9.2 mph - N/A   Clear
5:15 PM 46.4 °F 40.7 °F 24.8 °F 43% 29.88 in 10.0 mi West 12.7 mph - N/A   Clear
5:35 PM 46.4 °F 39.8 °F 23.0 °F 40% 29.89 in 10.0 mi West 16.1 mph - N/A   Clear
5:55 PM 46.4 °F 40.7 °F 21.2 °F 37% 29.91 in 10.0 mi West 12.7 mph - N/A   Clear
6:15 PM 44.6 °F 37.8 °F 21.2 °F 39% 29.92 in 10.0 mi West 15.0 mph - N/A   Clear
6:35 PM 44.6 °F 37.4 °F 21.2 °F 39% 29.93 in 10.0 mi West 16.1 mph - N/A   Clear
6:55 PM 42.8 °F 35.1 °F 21.2 °F 42% 29.93 in 10.0 mi West 16.1 mph - N/A   Clear
7:15 PM 42.8 °F 36.6 °F 21.2 °F 42% 29.94 in 10.0 mi West 11.5 mph - N/A   Clear
7:35 PM 42.8 °F 35.4 °F 21.2 °F 42% 29.95 in 10.0 mi West 15.0 mph - N/A   Clear
7:55 PM 42.8 °F 35.8 °F 19.4 °F 39% 29.95 in 10.0 mi West 13.8 mph - N/A   Clear
8:15 PM 37.4 °F 28.9 °F 19.4 °F 48% 29.96 in 10.0 mi West 13.8 mph - N/A   Clear
8:35 PM 39.2 °F 31.6 °F 19.4 °F 45% 29.97 in 10.0 mi West 12.7 mph - N/A   Clear
8:55 PM 35.6 °F 27.5 °F 19.4 °F 52% 29.97 in 10.0 mi West 11.5 mph - N/A   Clear
9:15 PM 35.6 °F 28.0 °F 17.6 °F 48% 29.98 in 10.0 mi West 10.4 mph - N/A   Clear
9:35 PM 35.6 °F 28.0 °F 17.6 °F 48% 29.98 in 10.0 mi West 10.4 mph - N/A   Clear
9:55 PM 35.6 °F 27.1 °F 17.6 °F 48% 29.99 in 10.0 mi West 12.7 mph - N/A   Clear
10:15 PM 33.8 °F 25.3 °F 17.6 °F 52% 29.99 in 10.0 mi West 11.5 mph - N/A   Clear
10:35 PM 33.8 °F 24.8 °F 17.6 °F 52% 30.00 in 10.0 mi West 12.7 mph - N/A   Clear
10:55 PM 35.6 °F 27.1 °F 19.4 °F 52% 30.00 in 10.0 mi West 12.7 mph - N/A   Clear
11:15 PM 37.4 °F 30.3 °F 19.4 °F 48% 30.01 in 10.0 mi WSW 10.4 mph - N/A   Clear
11:35 PM 37.4 °F 29.8 °F 17.6 °F 45% 30.01 in 10.0 mi SW 11.5 mph - N/A   Clear
11:55 PM 35.6 °F 27.5 °F 19.4 °F 52% 30.02 in 10.0 mi WSW 11.5 mph - N/A   Clear